Terminal Aerodrome Forecast
Issued by NWS Aberdeen, SD

Home | Current Version | Previous Version | Text Only | Print | Product List | Glossary On
Versions: 1 2 3 4 5 6 7 8 9 10 11 12 13 14 15 16 17 18 19 20 21 22 23 24 25 26 27 28 29 30 31 32 33 34 35 36 37 38 39 40 41 42 43 44 45 46 47 48 49 50
000
FTAK31 PAFA 121211 AAA
TAFABR
TAF AMD
PABR 121211Z 1212/1312 06020KT 3/4SM BLSN BR OVC012
      TEMPO 1213/1216 1/2SM -SN BLSN
     FM121600 06025G30KT 1/2SM -SN BLSN OVC010
     FM122100 07028G35KT 1/4SM -SN BLSN VV008
     FM130300 08030G38KT 1/4SM -SN BLSN VV006=

USA.gov is the U.S. government's official web portal to all federal, state and local government web resources and services.